This is the latest recevied weather packets stored in our database for station/object G6LTT. If no packets are shown the sender has not sent any weather packets the latest 10 day(s).
| Time | Temp. | Humidity | Pressure | Rain* | Wind** | Luminosity | Snow |
|---|---|---|---|---|---|---|---|
| 1778193903 | 10.56° C | 81% | 1045.4 hPa | 0 mm | - | - | - |
| 1778192823 | 10.56° C | 80% | 1045.2 hPa | 0 mm | - | - | - |
| 1778183643 | 11.67° C | 74% | 1044.5 hPa | 0 mm | - | - | - |
| 1778181616 | 12.22° C | 72% | 1044.1 hPa | 0 mm | - | - | - |
| 1778173743 | 14.44° C | 59% | 1043.6 hPa | 0 mm | - | - | - |
| 1778173203 | 14.44° C | 58% | 1043.6 hPa | 0 mm | - | - | - |
| 1778170683 | 15° C | 56% | 1043.8 hPa | 0 mm | - | - | - |
| 1778166543 | 14.44° C | 55% | 1043.8 hPa | 0 mm | - | - | - |
| 1778162403 | 14.44° C | 54% | 1044.3 hPa | 0 mm | - | - | - |
| 1778159883 | 14.44° C | 52% | 1044.4 hPa | 0 mm | - | - | - |
| 1778159343 | 13.89° C | 55% | 1044.6 hPa | 0 mm | - | - | - |
| 1778153353 | 12.78° C | 57% | 1044.9 hPa | 0 mm | - | - | - |
| 1778152683 | 12.78° C | 59% | 1044.9 hPa | 0 mm | - | - | - |
| 1778151603 | 13.33° C | 56% | 1044.6 hPa | 0 mm | - | - | - |
| 1778144403 | 12.78° C | 64% | 1044.8 hPa | 0 mm | - | - | - |
| 1778142423 | 10.56° C | 73% | 1044.9 hPa | 0 mm | - | - | - |
| 1778141883 | 11.11° C | 72% | 1044.8 hPa | 0 mm | - | - | - |
| 1778140803 | 11.67° C | 70% | 1044.8 hPa | 0 mm | - | - | - |
| 1778139363 | 11.11° C | 71% | 1044.9 hPa | 0 mm | - | - | - |
| 1778134276 | 7.78° C | 87% | 1044.5 hPa | 0 mm | - | - | - |
| 1778124423 | 7.22° C | 91% | 1043.7 hPa | 0 mm | - | - | - |
| 1778123343 | 6.67° C | 91% | 1043.7 hPa | 0 mm | - | - | - |
| 1778119874 | 7.22° C | 90% | 1043.4 hPa | 0 mm | - | - | - |
| 1778116143 | 7.78° C | 87% | 1043.6 hPa | 0 mm | - | - | - |
| 1778115243 | 7.78° C | 87% | 1043.4 hPa | 0 mm | - | - | - |
* Rain latest hour (hover to see other rain measurements)
** Current wind speed in m/s (hover to see current wind gust speed)